Odessa, TX

7:05 PM CDT on May 25, 2017 (GMT -0500)
Odessa-Schlemeyer

Weather History for KODO - December, 2012

Change the Weather History Date:

Friday, December 7, 2012

  Actual Average (KMAF) Record (KMAF)
Temperature  
Mean Temperature 54 °F -  
Max Temperature 70 °F 57 °F 79 °F (1966)
Min Temperature 39 °F 31 °F 13 °F (2005)
Degree Days  
Heating Degree Days 10    
Growing Degree Days 4 (Base 50)    
Moisture  
Dew Point 30 °F    
Average Humidity 44    
Maximum Humidity 58    
Minimum Humidity 23    
Precipitation  
Precipitation 0.00 in - - ()
Sea Level Pressure  
Sea Level Pressure 29.80 in    
Wind  
Wind Speed 6 mph (NE)    
Max Wind Speed 10 mph    
Max Gust Speed -    
Visibility 10 miles    
Events      
Averages and records for this station are not official NWS values.
T = Trace of Precipitation, MM = Missing Value Source: NWS Daily Summary

Daily Weather History Graph

Daily Weather History Graph

Search for Another Location

Airport or City:

Trip Planner

Search our weather history database for the weather conditions in past years. The results will help you decide how hot, cold, wet, or windy it might be!

Date:

Astronomy

Dec. 07, 2012 Rise Set
Actual Time 7:37 AM CST 5:45 PM CST
Civil Twilight 7:10 AM CST 6:12 PM CST
Nautical Twilight 6:40 AM CST 6:42 PM CST
Astronomical Twilight 6:10 AM CST 7:12 PM CST
Moon 1:18 AM CST (12/7) 1:25 PM CST (12/7)
Length of Visible Light 11h 01m
Length of Day
10h 08m
Last Quarter, 38% of the Moon is Illuminated
Dec 7
Last Quarter
Dec 13
New
Dec 19
First Quarter
Dec 28
Full
Jan 4
Last Quarter

Hourly Weather History & Observations

Time (CST) Temp. Windchill Dew Point Humidity Pressure Visibility Wind Dir Wind Speed Gust Speed Precip Events Conditions
12:53 AM 51.1 °F - 26.1 °F 38% 29.77 in 10.0 mi NE 4.6 mph - N/A   Clear
1:53 AM 48.0 °F - 27.0 °F 44% 29.77 in 10.0 mi NNE 8.1 mph - N/A   Clear
2:53 AM 46.0 °F 41.4 °F 28.0 °F 50% 29.77 in 10.0 mi NE 9.2 mph - N/A   Clear
3:53 AM 44.1 °F 40.1 °F 30.0 °F 58% 29.76 in 10.0 mi ENE 6.9 mph - N/A   Clear
4:53 AM 44.1 °F 39.5 °F 28.9 °F 55% 29.77 in 10.0 mi NNE 8.1 mph - N/A   Clear
5:53 AM 43.0 °F 37.2 °F 27.0 °F 53% 29.79 in 10.0 mi NNE 10.4 mph - N/A   Clear
6:53 AM 41.0 °F 37.1 °F 26.1 °F 55% 29.83 in 10.0 mi North 5.8 mph - N/A   Clear
7:53 AM 39.9 °F 36.7 °F 26.1 °F 58% 29.83 in 10.0 mi North 4.6 mph - N/A   Clear
8:53 AM 45.0 °F 39.7 °F 27.0 °F 49% 29.85 in 10.0 mi North 10.4 mph - N/A   Clear
9:53 AM 48.9 °F - 30.9 °F 50% 29.86 in 10.0 mi NNE 8.1 mph - N/A   Clear
10:53 AM 53.1 °F - 33.1 °F 47% 29.86 in 10.0 mi NNE 5.8 mph - N/A   Clear
11:53 AM 57.9 °F - 34.0 °F 41% 29.83 in 10.0 mi Calm Calm - N/A   Clear
12:53 PM 61.0 °F - 33.1 °F 35% 29.81 in 10.0 mi Calm Calm - N/A   Clear
1:53 PM 64.0 °F - 32.0 °F 30% 29.78 in 10.0 mi NNE 3.5 mph - N/A   Clear
2:53 PM 66.0 °F - 30.9 °F 27% 29.76 in 10.0 mi West 4.6 mph - N/A   Clear
3:53 PM 70.0 °F - 30.0 °F 23% 29.75 in 10.0 mi Variable 4.6 mph - N/A   Clear
4:53 PM 69.1 °F - 30.0 °F 23% 29.75 in 10.0 mi Calm Calm - N/A   Clear
5:53 PM 60.1 °F - 32.0 °F 35% 29.77 in 10.0 mi East 8.1 mph - N/A   Clear
6:53 PM 55.0 °F - 32.0 °F 42% 29.80 in 10.0 mi ENE 8.1 mph - N/A   Clear
7:53 PM 52.0 °F - 30.9 °F 45% 29.81 in 10.0 mi East 6.9 mph - N/A   Clear
8:53 PM 53.1 °F - 32.0 °F 45% 29.83 in 10.0 mi South 3.5 mph - N/A   Clear
9:53 PM 46.9 °F - 30.9 °F 54% 29.85 in 10.0 mi Calm Calm - N/A   Clear
10:53 PM 48.0 °F - 30.9 °F 52% 29.84 in 10.0 mi WSW 3.5 mph - N/A   Clear
11:53 PM 46.9 °F - 30.9 °F 54% 29.83 in 10.0 mi Calm Calm - N/A   Clear